Regional Weather Roundup
Issued by NWS

Home | Current Version | Previous Version | Text Only | Print | Product List | Glossary On
Versions: 1 2 3 4 5 6 7 8 9 10 11 12 13 14 15 16 17 18 19 20 21 22 23 24 25 26 27 28 29 30 31 32 33 34 35 36 37 38 39 40 41 42 43 44 45 46 47 48 49 50
000
ASUS43 KDMX 121706
RWRIA

WEATHER ROUNDUP FOR IOWA
NATIONAL WEATHER SERVICE DES MOINES IA
1200 PM CDT MON APR 12 2021

NOTE: "FAIR" INDICATES FEW OR NO CLOUDS BELOW 12,000 FEET WITH NO
SIGNIFICANT WEATHER AND/OR OBSTRUCTIONS TO VISIBILITY.

* - THESE STATIONS ARE NOT NWS STATIONS...THUS NOT UNDER NWS
QUALITY CONTROL.  THEY ALSO DO NOT REPORT WEATHER SUCH
AS PRECIPITATION OR FOG.

IAZ001>003-012>014-020>022-031>034-043>046-121800-
   NORTHWEST IOWA

CITY           SKY/WX    TMP DP  RH WIND       PRES   REMARKS
CARROLL *      SUNNY     50  30  46 W22G31    29.94S
CHEROKEE *     MOSUNNY   46  29  52 W18G33    29.94R
DENISON *      SUNNY     46  27  46 NW21G30   29.97S
LE MARS *      MOSUNNY   46  27  46 NW24G36   29.94S
MAURICE *      FAIR      46  28  49 W31G39    29.91F
SHELDON *      PTSUNNY   43  28  56 W24G35    29.88S
SIOUX CITY     SUNNY     48  28  46 NW17G33   29.98R
SPENCER        PTSUNNY   49  28  44 W32G43    29.88R
STORM LAKE *     N/A     46  28  49 W30G39    29.91S
$$

IAZ055>058-069>071-079>083-090>094-121800-
   SOUTHWEST IOWA

CITY           SKY/WX    TMP DP  RH WIND       PRES   REMARKS
ATLANTIC *     SUNNY     48  28  46 NW17G24   29.98R
AUDUBON *      SUNNY     48  28  46 NW14G25   29.97S
CLARINDA *     SUNNY     52  27  37 NW13G25   30.03S
COUNCIL BLFS * SUNNY     50  25  37 NW18G28   30.00R
CRESTON *      SUNNY     52  30  43 W17G29    29.97R
HARLAN  *      SUNNY     48  30  49 W18G32    29.98S
LAMONI         SUNNY     52  30  43 W20G29    29.99R
RED OAK *      SUNNY     54  28  37 W16G24    30.01R
SHENANDOAH *   SUNNY     52  27  37 NW15G24   30.02S
$$

IAZ047>049-059>061-072>074-084-121800-
   CENTRAL IOWA

CITY           SKY/WX    TMP DP  RH WIND       PRES   REMARKS
AMES           SUNNY     52  28  39 NW18G31   29.91S
ANKENY *       SUNNY     52  30  43 NW22G29   29.94R
BOONE *        SUNNY     48  30  49 NW22G36   29.90R
CHARITON *     SUNNY     52  32  46 W14G25    29.95R
DES MOINES     MOSUNNY   51  30  44 W22G36    29.95R
GRINNELL*      MOSUNNY   52  34  51 W22G29    29.92S
KNOXVILLE *    SUNNY     52  30  43 NW23      29.93S
MARSHALLTOWN     N/A    N/A N/A N/A MISG      29.89R
NEWTON *       SUNNY     50  32  50 NW17G30   29.92R
PELLA *        SUNNY     52  31  45 NW17G26   29.94S
$$

IAZ004>006-015-016-023>025-035-036-121800-
   NORTH CENTRAL IOWA

CITY           SKY/WX    TMP DP  RH WIND       PRES   REMARKS
ALGONA *       MOSUNNY   48  30  49 NW22G35   29.85R
CLARION *      MOSUNNY   48  30  49 W29G37    29.88R
ESTHERVILLE    SUNNY     46  28  49 W30G43    29.84S
FORT DODGE *   MOSUNNY   49  29  46 W14G29    29.91R
MASON CITY     CLOUDY    45  29  53 W29G37    29.85R
FOREST CITY *  CLOUDY    46  30  53 W22G35    29.84R
WEBSTER CITY * MOSUNNY   50  30  46 W25G36    29.89R
IOWA FALLS *   FAIR      50  32  49 W28G37    29.89S
$$

IAZ007>011-017>019-026>030-037>042-050>054-066-121800-
   NORTHEAST IOWA

CITY           SKY/WX    TMP DP  RH WIND       PRES   REMARKS
CEDAR RAPIDS   MOSUNNY   51  36  56 W26G33    29.87R
CHARLES CITY * CLOUDY    45  34  65 W22G29    29.84R
CLINTON *      CLOUDY    51  43  74 W24       29.85R
DECORAH *        N/A     45  39  81 VRB7G17   29.79R
DUBUQUE        CLOUDY    49  39  68 W17       29.82R
MONTICELLO *   CLOUDY    50  41  71 W20       29.84R
OELWEIN *      CLOUDY    46  34  61 W21G28    29.85R
WATERLOO       MOSUNNY   50  32  50 W22G31    29.85R
$$

IAZ064-065-067-068-078-121800-
   EAST CENTRAL IOWA

CITY           SKY/WX    TMP DP  RH WIND       PRES   REMARKS
DAVENPORT      PTSUNNY   52  41  66 W21G30    29.88R
IOWA CITY      SUNNY     53  34  48 W23G31    29.90R
MT. PLEASANT * MOSUNNY   54  37  54 NW18G25   29.92S
MUSCATINE *    MOSUNNY   55  39  54 W21G30    29.90R
QUAD CITIES    PTSUNNY   53  41  63 W16G26    29.86R
$$

IAZ062-063-075>077-085>089-095>099-121800-
   SOUTHEAST IOWA

CITY           SKY/WX    TMP DP  RH WIND       PRES   REMARKS
BURLINGTON     PTSUNNY   52  40  63 W13G24    29.91R
FAIRFIELD *    MOSUNNY   52  39  62 W18G25    29.92S
FORT MADISON * MOSUNNY   54  43  66 W17       29.93R
KEOKUK *       PTSUNNY   54  43  66 W14G22    29.93R
OSKALOOSA *    FAIR      54  36  51 NW21      29.93S
OTTUMWA        SUNNY     52  35  52 NW17G29   29.93R
WASHINGTON *     N/A    N/A N/A N/A MISG        N/A
$$

ABBREVIATIONS USED IN REMARKS
   TC - TEMPERATURES IN CELSIUS
  WCI - WIND CHILL INDEX
   HX - HEAT INDEX
  VSB - VISIBILITY
$$




USA.gov is the U.S. government's official web portal to all federal, state and local government web resources and services.